This is the latest recevied weather packets stored in our database for station/object WJ9H. If no packets are shown the sender has not sent any weather packets the latest 1 day(s).
| Time | Temp. | Humidity | Pressure | Rain* | Wind** | Luminosity | Snow |
|---|---|---|---|---|---|---|---|
| 1778019435 | 12.22° C | - | 1009.5 hPa | 0 mm | 6.26 m/s, 201° | - | - |
| 1778019287 | 12.22° C | - | 1009.5 hPa | 0 mm | 5.81 m/s, 97° | - | - |
| 1778018979 | 12.22° C | - | 1009.5 hPa | 0 mm | 6.26 m/s, 201° | - | - |
| 1778018835 | 12.22° C | - | 1009.5 hPa | 0 mm | 6.71 m/s, 58° | - | - |
| 1778018379 | 12.22° C | - | 1009.5 hPa | 0 mm | 6.71 m/s, 58° | - | - |
| 1778018180 | 12.22° C | - | 1009.2 hPa | 0 mm | 4.02 m/s, 68° | - | - |
| 1778018089 | 12.22° C | - | 1009.5 hPa | 0 mm | 3.58 m/s, 356° | - | - |
| 1778017779 | 12.22° C | - | 1009.2 hPa | 0 mm | 4.02 m/s, 68° | - | - |
| 1778017636 | 12.78° C | - | 1009.2 hPa | 0 mm | 2.68 m/s, 340° | - | - |
| 1778017179 | 12.78° C | - | 1009.2 hPa | 0 mm | 2.68 m/s, 340° | - | - |
| 1778017037 | 12.78° C | - | 1009.2 hPa | 0 mm | 4.02 m/s, 339° | - | - |
| 1778016888 | 12.78° C | - | 1009.5 hPa | 0 mm | 4.02 m/s, 259° | - | - |
| 1778016579 | 12.78° C | - | 1009.2 hPa | 0 mm | 4.02 m/s, 339° | - | - |
| 1778016303 | 13.33° C | - | 1009.2 hPa | 0 mm | 3.13 m/s, 63° | - | - |
| 1778015835 | 13.33° C | - | 1009.2 hPa | 0 mm | 3.58 m/s, 113° | - | - |
| 1778015688 | 12.78° C | - | 1009.2 hPa | 0 mm | 6.71 m/s, 173° | - | - |
| 1778015380 | 13.33° C | - | 1009.2 hPa | 0 mm | 3.58 m/s, 113° | - | - |
| 1778015235 | 13.33° C | - | 1009.2 hPa | 0 mm | 2.68 m/s, 332° | - | - |
| 1778014634 | 13.33° C | - | 1009.5 hPa | 0 mm | 4.02 m/s, 307° | - | - |
| 1778014488 | 13.33° C | - | 1009.2 hPa | 0 mm | 4.47 m/s, 83° | - | - |
| 1778014035 | 12.78° C | - | 1009.5 hPa | 0 mm | 3.58 m/s, 354° | - | - |
| 1778013578 | 12.78° C | - | 1009.5 hPa | 0 mm | 3.58 m/s, 354° | - | - |
| 1778013437 | 13.33° C | - | 1009.5 hPa | 0 mm | 4.02 m/s, 55° | - | - |
| 1778013288 | 12.78° C | - | 1009.5 hPa | 0 mm | 4.02 m/s, 39° | - | - |
| 1778012980 | 13.33° C | - | 1009.5 hPa | 0 mm | 4.02 m/s, 55° | - | - |
* Rain latest hour (hover to see other rain measurements)
** Current wind speed in m/s (hover to see current wind gust speed)